Regional Weather Roundup
Issued by NWS Jackson, KY

Home | Current Version | Previous Version | Graphics & Text | Print | Product List | Glossary On
Versions: 1 2 3 4 5 6 7 8 9 10 11 12 13 14 15 16 17 18 19 20 21 22 23 24 25 26 27 28 29 30 31 32 33 34 35 36 37 38 39 40 41 42 43 44 45 46 47 48 49 50
000
ASUS43 KJKL 221710
RWRJKL

EAST KENTUCKY HOURLY WEATHER ROUNDUP
NATIONAL WEATHER SERVICE JACKSON KY
1200 PM EST MON DEC 22 2014

NOTE: "FAIR" INDICATES FEW OR NO CLOUDS BELOW 12,000 FEET WITH
NO SIGNIFICANT WEATHER AND/OR OBSTRUCTIONS TO VISIBILITY.

* THESE REPORTS ARE NOT UNDER NWS QUALITY CONTROL AND MAY NOT
  REPORT WEATHER SUCH AS PRECIPITATION AND FOG.

KYZ079-080-083-085-087-088-110-112-115-119-120-221800
...EASTERN KENTUCKY...

CITY           SKY/WX    TMP DP  RH WIND       PRES   REMARKS
JACKSON        PTSUNNY   50  37  61 VRB3      29.96F
LONDON         SUNNY     56  41  57 SE9       29.94F
SOMERSET*      MOSUNNY   54  39  58 SE5       29.93F
MONTICELLO*    MOSUNNY   56  43  61 S14       29.94F
MIDDLESBORO*   CLOUDY    53  41  63 SE3       29.96F
HARLAN APT*    SUNNY     54  39  58 NE5       29.95F
HAZARD APT*    CLOUDY    54  39  58 CALM      29.95
BLACK MTN*       N/A     43  41  93 SW2         N/A
PIKEVILLE APT* CLOUDY    46  37  71 NE5       29.97F
BIG SANDY*     CLOUDY    52  39  62 E3        29.99F
MOREHEAD APT*  CLOUDY    48  36  61 VRB7      29.99F
$$

KYZ035-036-041-042-044-050-067-078-099-221800
...CENTRAL KENTUCKY...

CITY           SKY/WX    TMP DP  RH WIND       PRES   REMARKS
MT STERLING*   PTSUNNY   50  37  62 SE7       29.97F
FLEMING/MASON* SUNNY     52  39  62 SE5       29.97F
DANVILLE*      CLOUDY    50  39  66 S8        29.94F
RICHMOND*      CLOUDY    52  39  62 CALM      29.93F
LEXINGTON      CLOUDY    50  38  63 S12       29.95F
FRANKFORT      CLOUDY    49  38  65 S7        29.94F
$$

KYZ091>093-OHZ055-061-077-WVZ005-015-034-035-042-221800
...SOUTHERN OHIO/WEST VIRGINIA...

CITY           SKY/WX    TMP DP  RH WIND       PRES   REMARKS
COVINGTON      CLOUDY    48  34  58 SE7       29.94
COLUMBUS       CLOUDY    42  31  64 E6        30.02F
DAYTON         CLOUDY    40  32  73 SE9       29.96F WCI  34
WILMINGTON     PTSUNNY   42  34  73 SE10      29.96F
HUNTINGTON     CLOUDY    51  37  58 CALM      29.99F
CHARLESTON     PTSUNNY   50  36  58 CALM      30.01F
PINEVILLE*     CLOUDY    51  40  68 MISG      30.05F
BECKLEY        CLOUDY    38  31  76 SE12      30.02F WCI  30
BLUEFIELD      CLOUDY    39  32  76 E9        30.03F WCI  33
$$

VAZ002-007-008-TNZ017-027-036-066-071-221800
...SOUTHWEST VIRGINIA/EAST TENNESSEE...

CITY           SKY/WX    TMP DP  RH WIND       PRES   REMARKS
WISE*          PTSUNNY   50  37  62 SE3       29.98F
JONESVILLE*    SUNNY     54  41  62 E5        29.98F
ABINGDON*      SUNNY     51  40  66 E13       29.99F
BRISTOL        MOSUNNY   53  41  63 E6        29.98F
KNOXVILLE      PTSUNNY   53  41  63 VRB3      29.94F
OAK RIDGE      CLOUDY    51  39  63 N3        29.96F
CROSSVILLE     CLOUDY    51  41  68 SE6       29.91F
NASHVILLE      CLOUDY    53  45  74 S9        29.88F
$$

...KEY TO REMARKS...
VSB - VISIBILITY IN MILES
WCI - WIND CHILL INDEX
HX  - HEAT INDEX

$$


USA.gov is the U.S. government's official web portal to all federal, state and local government web resources and services.